Home > Weather > Mendoza > Past weeks

Flag for Argentina Weather for the Past 2 Weeks in Mendoza, Mendoza, Argentina

Now
77 °F

Scattered clouds.


Feels Like: 79 °F
Forecast: 67 / 78 °F
Wind: 3 mph from East

Location: Mendoza Aerodrome

Current Time: Feb 13, 2016 at 8:22:19 AM

Latest Report: Feb 13, 2016 at 8:00 AM


Visibility: N/A

Pressure: 29.86 "Hg (27.35 "Hg at 767m altitude)

Humidity: 65%

Dew point: 64 °F

Location of MendozaLocation

Historic Weather in Mendoza — Graph

°F

Mendoza Temperature Yesterday

Maximum temperature yesterday: 95 °F (at 6:00 PM)
Minimum temperature yesterday: 75 °F (at 5:00 AM)
Average temperature yesterday: 84 °F

High & Low Weather Summary for the Past Weeks

 TemperatureHumidityPressure
High95 °F (Feb 12, 6:00 PM)94% (Feb 5, 4:00 AM)30.21 "Hg (Feb 5, 4:00 AM)
Low64 °F (Jan 30, 9:00 AM)23% (Feb 3, 7:00 PM)29.56 "Hg (Feb 12, 7:00 PM)
Average78 °F62%29.91 "Hg
* Reported Jan 29 7:00 AM — Feb 13 7:00 AM, Mendoza, Weather by CustomWeather, © 2016

Note: Actual official high and low records may vary slightly from our data, if they occured in-between our weather recording intervals... More about our weather records

Advertising

Mendoza Weather History for the Previous 24 Hours

 ConditionsComfort  
Time TempWeatherWind HumidityBarometerVisibility
7:00 AM
Sat, Feb 13
75 °FScattered clouds.6 mph65%29.83 "HgN/A
6:00 AM77 °FThundershowers. Passing clouds.9 mph79%29.80 "HgN/A
5:00 AM79 °FThundershowers. Passing clouds.8 mph74%29.74 "HgN/A
4:00 AM79 °FThundershowers. Passing clouds.6 mph74%29.74 "HgN/A
3:00 AM81 °FThundershowers. Passing clouds.8 mph74%29.71 "HgN/A
2:00 AM81 °FThundershowers. Passing clouds.9 mph74%29.71 "HgN/A
1:00 AM84 °FPassing clouds.3 mph58%29.65 "HgN/A
12:00 AM84 °FPassing clouds.2 mph62%29.65 "HgN/A
11:00 PM
Fri, Feb 12
86 °FPassing clouds.2 mph59%29.65 "HgN/A
10:00 PM86 °FPassing clouds.No wind66%29.62 "HgN/A
9:00 PM90 °FPassing clouds.No wind55%29.59 "HgN/A
8:00 PM91 °FPassing clouds.No wind49%29.59 "HgN/A
7:00 PM93 °FPassing clouds.3 mph47%29.56 "HgN/A
6:00 PM95 °FPassing clouds.No wind44%29.59 "HgN/A
5:00 PM93 °FPassing clouds.5 mph44%29.59 "HgN/A
4:00 PM93 °FPassing clouds.6 mph49%29.62 "HgN/A
3:00 PM91 °FPassing clouds.6 mph49%29.62 "HgN/A
2:00 PM90 °FPassing clouds.8 mph52%29.65 "HgN/A
1:00 PM88 °FPassing clouds.8 mph59%29.68 "HgN/A
12:00 PM86 °FPassing clouds.8 mph62%29.71 "HgN/A
11:00 AM82 °FPassing clouds.7 mph70%29.74 "HgN/A
10:00 AM81 °FPassing clouds.10 mph70%29.74 "HgN/A
9:00 AM77 °FScattered clouds.No wind79%29.77 "HgN/A
8:00 AM77 °FSunny.7 mph74%29.74 "Hg10 mi
Weather by CustomWeather, © 2016

See weather overviewHow to use our weather pages